Location: Hradec Kralove
(50.2170°N, 15.8330°E)
Time: 05:32:02
(UTC+02:00)

TIGRISAT - Pass Details

Date: 06 August 2024
Orbit: 591 x 667 km, 97.7° (Epoch: 19 September)

Event Time Altitude Azimuth Distance (km) Brightness Sun altitude
Rises 03:45:44 0° 140° (SE) 2,948 ? -14.2°
Reaches altitude 10° 03:48:06 10° 132° (SE) 2,030 ? -13.9°
Maximum altitude 03:52:06 34° 67° (ENE) 1,036 ? -13.5°
Drops below altitude 10° 03:56:02 10° 2° (N) 2,000 ? -13.1°
Sets 03:58:20 0° 354° (N) 2,897 ? -12.8°
